Glasgow, KY

6:01 AM CST on January 18, 2018 (GMT -0600)
Glasgow Municipal

Weather History for KGLW - May, 2013

Change the Weather History Date:

Wednesday, May 15, 2013

  Actual Average Record
Temperature  
Mean Temperature 74 °F -  
Max Temperature 84 °F 77 °F 91 °F (1988)
Min Temperature 63 °F 54 °F 37 °F (1973)
Cooling Degree Days 8    
Growing Degree Days 24 (Base 50)    
Moisture  
Dew Point 53 °F    
Average Humidity 51    
Maximum Humidity 69    
Minimum Humidity 29    
Precipitation  
Precipitation 0.00 in - - ()
Sea Level Pressure  
Sea Level Pressure 30.02 in    
Wind  
Wind Speed 7 mph (SW)    
Max Wind Speed 16 mph    
Max Gust Speed 24 mph    
Visibility 10 miles    
Events      
Averages and records for this station are not official NWS values.
T = Trace of Precipitation, MM = Missing Value Source: NWS Daily Summary

Daily Weather History Graph

Daily Weather History Graph

Search for Another Location

Airport or City:

Trip Planner

Search our weather history database for the weather conditions in past years. The results will help you decide how hot, cold, wet, or windy it might be!

Date:

Astronomy

May. 15, 2013 Rise Set
Actual Time 5:35 AM CDT 7:45 PM CDT
Civil Twilight 5:06 AM CDT 8:14 PM CDT
Nautical Twilight 4:30 AM CDT 8:50 PM CDT
Astronomical Twilight 3:52 AM CDT 9:28 PM CDT
Moon 10:09 AM CDT (5/15) No Moon Set
Length of Visible Light 15h 07m
Length of Day
14h 09m
Waxing Crescent, 27% of the Moon is Illuminated
May 15
Waxing Crescent
May 17
First Quarter
May 24
Full
May 31
Last Quarter
Jun 8
New

Hourly Weather History & Observations

Time (CDT) Temp. Heat Index Dew Point Humidity Pressure Visibility Wind Dir Wind Speed Gust Speed Precip Events Conditions
12:15 AM 68.4 °F - 56.5 °F 66% 30.00 in 10.0 mi SSW 4.6 mph - N/A   Clear
12:35 AM 68.0 °F - 56.3 °F 66% 30.00 in 10.0 mi SSW 3.5 mph - N/A   Clear
12:55 AM 67.5 °F - 56.3 °F 67% 30.00 in 10.0 mi SSW 4.6 mph - N/A   Clear
1:15 AM 67.5 °F - 56.3 °F 67% 30.00 in 10.0 mi SW 4.6 mph - N/A   Clear
1:35 AM 66.7 °F - 56.3 °F 69% 30.00 in 10.0 mi SW 3.5 mph - N/A   Clear
1:55 AM 66.7 °F - 55.8 °F 68% 30.00 in 10.0 mi SW 4.6 mph - N/A   Clear
2:15 AM 67.3 °F - 55.4 °F 66% 30.00 in 10.0 mi SW 5.8 mph - N/A   Clear
2:35 AM 67.5 °F - 55.2 °F 65% 30.00 in 10.0 mi SW 6.9 mph - N/A   Clear
2:55 AM 67.5 °F - 54.9 °F 64% 30.01 in 10.0 mi SW 6.9 mph - N/A   Clear
3:15 AM 67.3 °F - 54.7 °F 64% 30.01 in 10.0 mi SW 8.1 mph - N/A   Clear
3:35 AM 67.1 °F - 54.5 °F 64% 30.01 in 10.0 mi SW 8.1 mph - N/A   Clear
3:55 AM 66.6 °F - 54.3 °F 65% 30.01 in 10.0 mi SW 4.6 mph - N/A   Clear
4:15 AM 65.5 °F - 54.1 °F 67% 30.02 in 10.0 mi SW 6.9 mph - N/A   Clear
4:35 AM 65.3 °F - 54.1 °F 67% 30.02 in 10.0 mi SW 6.9 mph - N/A   Clear
4:55 AM 64.8 °F - 54.1 °F 68% 30.03 in 10.0 mi SW 5.8 mph - N/A   Clear
5:15 AM 64.6 °F - 54.0 °F 68% 30.03 in 10.0 mi SW 6.9 mph - N/A   Clear
5:35 AM 64.6 °F - 53.8 °F 68% 30.04 in 10.0 mi SW 6.9 mph - N/A   Clear
5:55 AM 64.4 °F - 53.6 °F 68% 30.05 in 10.0 mi SW 6.9 mph - N/A   Clear
6:15 AM 64.4 °F - 53.6 °F 68% 30.06 in 10.0 mi SW 6.9 mph - N/A   Clear
6:35 AM 65.1 °F - 53.6 °F 66% 30.07 in 10.0 mi SW 5.8 mph - N/A   Clear
6:55 AM 66.0 °F - 53.8 °F 65% 30.07 in 10.0 mi SW 8.1 mph - N/A   Clear
7:15 AM 67.1 °F - 54.0 °F 63% 30.07 in 10.0 mi SW 8.1 mph - N/A   Clear
7:35 AM 68.2 °F - 54.5 °F 62% 30.08 in 10.0 mi SW 6.9 mph - N/A   Clear
7:55 AM 69.6 °F - 55.0 °F 60% 30.08 in 10.0 mi WSW 10.4 mph 16.1 mph N/A   Clear
8:15 AM 71.2 °F - 55.0 °F 56% 30.08 in 10.0 mi WSW 9.2 mph - N/A   Clear
8:35 AM 72.3 °F - 55.4 °F 55% 30.09 in 10.0 mi WSW 10.4 mph - N/A   Clear
8:55 AM 73.4 °F - 55.0 °F 52% 30.09 in 10.0 mi WSW 8.1 mph - N/A   Clear
9:15 AM 74.3 °F - 55.4 °F 52% 30.09 in 10.0 mi WSW 12.7 mph 17.3 mph N/A   Clear
9:35 AM 75.0 °F - 55.6 °F 51% 30.08 in 10.0 mi WSW 9.2 mph - N/A   Clear
9:55 AM 75.9 °F - 55.8 °F 49% 30.08 in 10.0 mi West 6.9 mph - N/A   Clear
10:15 AM 76.8 °F - 56.3 °F 49% 30.08 in 10.0 mi WSW 12.7 mph - N/A   Clear
10:35 AM 77.2 °F - 55.9 °F 48% 30.08 in 10.0 mi WSW 12.7 mph - N/A   Clear
10:55 AM 77.9 °F - 56.7 °F 48% 30.08 in 10.0 mi WSW 12.7 mph 20.7 mph N/A   Clear
11:15 AM 78.4 °F - 56.8 °F 47% 30.07 in 10.0 mi WSW 9.2 mph - N/A   Clear
11:35 AM 79.2 °F - 57.0 °F 46% 30.06 in 10.0 mi West 13.8 mph 18.4 mph N/A   Clear
11:55 AM 79.9 °F - 57.0 °F 45% 30.05 in 10.0 mi SW 11.5 mph 18.4 mph N/A   Clear
12:15 PM 80.4 °F 80.8 °F 57.7 °F 46% 30.05 in 10.0 mi SW 13.8 mph 19.6 mph N/A   Clear
12:35 PM 81.1 °F 81.2 °F 57.0 °F 44% 30.04 in 10.0 mi WSW 9.2 mph - N/A   Clear
12:55 PM 81.9 °F 81.4 °F 55.9 °F 41% 30.04 in 10.0 mi SW 8.1 mph 20.7 mph N/A   Clear
1:15 PM 82.4 °F 81.6 °F 54.5 °F 38% 30.03 in 10.0 mi SW 11.5 mph 23.0 mph N/A   Clear
1:35 PM 82.6 °F 81.7 °F 54.7 °F 38% 30.03 in 10.0 mi SW 13.8 mph 23.0 mph N/A   Clear
1:55 PM 82.8 °F - 52.9 °F 36% 30.02 in 10.0 mi WSW 12.7 mph - N/A   Clear
2:15 PM 82.9 °F - 52.2 °F 34% 30.02 in 10.0 mi WSW 13.8 mph 24.2 mph N/A   Clear
2:35 PM 83.3 °F - 50.2 °F 32% 30.01 in 10.0 mi WSW 16.1 mph - N/A   Clear
2:55 PM 83.5 °F - 48.9 °F 30% 30.00 in 10.0 mi WSW 16.1 mph 21.9 mph N/A   Clear
3:15 PM 83.8 °F - 49.5 °F 30% 29.99 in 10.0 mi SW 11.5 mph 21.9 mph N/A   Clear
3:35 PM 84.2 °F - 49.6 °F 30% 29.99 in 10.0 mi WSW 13.8 mph - N/A   Clear
3:55 PM 84.2 °F - 51.1 °F 32% 29.98 in 10.0 mi SW 16.1 mph 21.9 mph N/A   Clear
4:15 PM 84.0 °F - 50.4 °F 31% 29.98 in 10.0 mi WSW 15.0 mph - N/A   Clear
4:35 PM 83.8 °F - 49.5 °F 30% 29.97 in 10.0 mi SW 16.1 mph 21.9 mph N/A   Clear
4:55 PM 83.3 °F - 49.3 °F 31% 29.96 in 10.0 mi SW 9.2 mph 13.8 mph N/A   Clear
5:15 PM 83.3 °F - 48.6 °F 30% 29.96 in 10.0 mi WSW 16.1 mph 21.9 mph N/A   Clear
5:35 PM 81.7 °F - 46.8 °F 29% 29.96 in 10.0 mi WSW 9.2 mph - N/A   Clear
5:55 PM 81.9 °F - 48.7 °F 31% 29.96 in 10.0 mi WSW 10.4 mph - N/A   Clear
6:15 PM 81.0 °F - 49.5 °F 33% 29.96 in 10.0 mi SW 9.2 mph - N/A   Clear
6:35 PM 79.3 °F - 49.8 °F 36% 29.95 in 10.0 mi SW 8.1 mph - N/A   Clear
6:55 PM 76.3 °F - 50.7 °F 41% 29.96 in 10.0 mi SW 5.8 mph - N/A   Clear
7:15 PM 75.2 °F - 51.1 °F 43% 29.96 in 10.0 mi WSW 4.6 mph - N/A   Clear
7:35 PM 73.9 °F - 50.5 °F 44% 29.96 in 10.0 mi WSW 9.2 mph - N/A   Clear
7:55 PM 73.8 °F - 47.8 °F 40% 29.97 in 10.0 mi WSW 5.8 mph - N/A   Clear
8:15 PM 72.5 °F - 47.8 °F 42% 29.98 in 10.0 mi Calm Calm - N/A   Clear
8:35 PM 71.2 °F - 48.2 °F 44% 29.98 in 10.0 mi Calm Calm - N/A   Clear
8:55 PM 71.1 °F - 47.7 °F 43% 29.98 in 10.0 mi Calm Calm - N/A   Clear
9:15 PM 70.5 °F - 47.5 °F 44% 29.99 in 10.0 mi Calm Calm - N/A   Clear
9:35 PM 70.0 °F - 47.3 °F 44% 29.99 in 10.0 mi Calm Calm - N/A   Clear
9:55 PM 66.9 °F - 48.4 °F 51% 29.99 in 10.0 mi Calm Calm - N/A   Clear
10:15 PM 66.4 °F - 48.6 °F 53% 29.99 in 10.0 mi Calm Calm - N/A   Clear
10:35 PM 64.6 °F - 49.1 °F 57% 29.98 in 10.0 mi Calm Calm - N/A   Clear
10:55 PM 63.7 °F - 49.8 °F 61% 29.98 in 10.0 mi Calm Calm - N/A   Clear
11:15 PM 64.9 °F - 49.3 °F 57% 29.98 in 10.0 mi Calm Calm - N/A   Clear
11:35 PM 64.4 °F - 50.2 °F 60% 29.98 in 10.0 mi Calm Calm - N/A   Clear
11:55 PM 64.4 °F - 50.7 °F 61% 29.98 in 10.0 mi Calm Calm - N/A   Clear